Ичера

Россия / Иркутская область     58°53′15″N   109°17′51″E
темп.,
°C
ветер,
м/с
пор.,
м/с
влажн.,
%
обл.,
%
осадки,
мм/ч
давл.,
гПа
погр.,
м
14 мая, пт
пт1423:00+3с11605 0.0 101710
02:00+1зсз11643 0.0 101810
05:00+1зюз11665 0.0 101810
08:00+8зюз12435 0.0 1017352
11:00+12з23285 0.0 10151879
14:00+14юз232415 0.0 10132269
17:00+15юз342335 0.0 10112424
20:00+11ю223842 0.0 101131
15 мая, сб
сб1523:00+6ю235236 0.0 101142
02:00+4ююв246061 0.0 101059
05:00+3ююв2565100 0.0 1008102
08:00+10ююз61041100 0.0 1005891
11:00+7з6880100 0.1 10061001
14:00+5зюз5881100 1.1 1007854
17:00+9зюз683792 0.4 10032454
20:00+7юз4842100 0.4 10021262
16 мая, вс
вс1623:00+3юз41096100 1.1 1002792
02:00+2з51196100 2.4 1001892
05:00+1зсз4129799 0.6 1003855
08:00+3зсз6107258 1.0 10051338
11:00+4зсз6951100 0.1 10061954
14:00+6зсз6943100 0.3 10072381
17:00+5зсз61043100 0.1 10082281
20:00+3зсз485896 0.3 1009768
17 мая, пн
пн1723:00−1зсз00735 0.1 100910
02:00−2юв117797 0.1 100910
05:00−2всв117597 0.0 100812
08:00+4св015197 0.0 1007531
11:00+6сз3540100 0.3 10062113
14:00+6сз3547100 0.8 10061707
17:00+6ссз354459 0.9 10051637
20:00+3св3564100 1.3 1007326
18 мая, вт
вт1823:000св0173100 0.1 100711
02:00−2с1178100 0.1 100715
05:00−3ссв1172100 0.0 100714
08:00+3с114354 0.0 1007687
11:00+5сз2428100 0.0 10052738
14:00+6сз3526100 0.0 10032617
17:00+5ссз4429100 0.0 10032307
20:00+3ссз363118 0.1 1003424